Tracking 18673 objects as of 25-June-2017
HD Live streaming from Space Station
objects crossing your sky now

OPS 9312 (IDSCS 2)

Track OPS 9312 (IDSCS 2) now!
OPS 9312 (IDSCS 2) is classified as:


NORAD ID: 2216
Int'l Code: 1966-053C
Perigee: 33,673.8 km
Apogee: 33,915.4 km
Inclination: 2.9 °
Period: 1,335.2 minutes
Semi major axis: 40165 km
RCS: 0.3162 m2 (medium)
Launch date: June 16, 1966
Source: United States (US)
Launch site: AIR FORCE EASTERN TEST RANGE (AFETR)
Your satellite tracking list
Your tracking list is empty





NASA's NSSDC Master Catalog

Two Line Element Set (TLE):
1  2216U 66053C   17172.95535675 -.00000065 +00000-0 +00000-0 0  9996
2  2216 002.8634 058.8823 0030072 140.7645 045.7177 01.07850224200573
Source of the keplerian elements: AFSPC